MEASAT-3B

Last updated on Sat Dec 13 2025 00:02:48 GMT+0000 (Coordinated Universal Time)

1 40147U 14054B 25346.15171981 -.00000232 00000+0 00000+0 0 9999 2 40147 0.0567 55.0266 0000810 276.8952 255.3210 1.00271554 41039
UTC large
Height (km)
Speed (km/s)
/
Latitude / Longitude
Inclination (degrees)
Orbital Period (minutes)
Azimuth
Elevation
Range (km)
Doppler Factor

Next 0 passes for location: London (51.5072 / 0.1276)

Sorry there are no passes over London.